| time (UTC) | temp F | wind direction | speed knots | gust knots | rain 1hr in | rain 24hr in | rain mn in | humidity % | barometer mb |
| 20260507212912 | 67 | 202 | 4.3 | 12.2 | 0.00 | 0.00 | 0.00 | 72 | 1013.8 |
| 20260507211858 | 66 | 274 | 7.0 | 13.0 | 0.00 | 0.00 | 0.00 | 71 | 1014.1 |
| 20260507211351 | 66 | 275 | 6.1 | 13.0 | 0.00 | 0.00 | 0.00 | 74 | 1014.1 |
| 20260507210844 | 67 | 218 | 7.0 | 11.3 | 0.00 | 0.00 | 0.00 | 72 | 1014.1 |
| 20260507210336 | 67 | 258 | 5.2 | 13.0 | 0.00 | 0.00 | 0.00 | 72 | 1014.1 |
| 20260507205829 | 67 | 246 | 7.8 | 13.0 | 0.00 | 0.00 | 0.00 | 73 | 1014.5 |
| 20260507205323 | 67 | 198 | 5.2 | 13.0 | 0.00 | 0.00 | 0.00 | 72 | 1014.5 |
| 20260507204814 | 66 | 297 | 7.0 | 13.0 | 0.00 | 0.00 | 0.00 | 72 | 1014.5 |
| 20260507204307 | 67 | 210 | 5.2 | 11.3 | 0.00 | 0.00 | 0.00 | 70 | 1014.5 |
| 20260507203759 | 66 | 261 | 7.0 | 13.0 | 0.00 | 0.00 | 0.00 | 72 | 1014.5 |
| 20260507203252 | 66 | 147 | 10.4 | 13.0 | 0.00 | 0.00 | 0.00 | 70 | 1014.5 |
| 20260507202745 | 67 | 217 | 10.4 | 11.3 | 0.00 | 0.00 | 0.00 | 71 | 1014.5 |
| 20260507202238 | 67 | 219 | 7.0 | 9.6 | 0.00 | 0.00 | 0.00 | 70 | 1014.5 |
| 20260507201730 | 67 | 213 | 4.3 | 12.2 | 0.00 | 0.00 | 0.00 | 72 | 1014.5 |
| 20260507201223 | 66 | 220 | 7.8 | 12.2 | 0.00 | 0.00 | 0.00 | 73 | 1014.5 |
| 20260507200715 | 66 | 241 | 4.3 | 11.3 | 0.00 | 0.00 | 0.00 | 73 | 1014.5 |
| 20260507200208 | 67 | 189 | 4.3 | 9.6 | 0.00 | 0.00 | 0.00 | 73 | 1014.5 |
| 20260507195701 | 67 | 220 | 7.8 | 9.6 | 0.00 | 0.00 | 0.00 | 70 | 1014.8 |
| 20260507195154 | 67 | 200 | 7.0 | 8.7 | 0.00 | 0.00 | 0.00 | 72 | 1014.8 |
| 20260507194646 | 67 | 216 | 5.2 | 9.6 | 0.00 | 0.00 | 0.00 | 72 | 1014.8 |
| 20260507194139 | 66 | 215 | 7.0 | 12.2 | 0.00 | 0.00 | 0.00 | 74 | 1014.8 |
| 20260507192617 | 66 | 266 | 6.1 | 9.6 | 0.00 | 0.00 | 0.00 | 72 | 1014.8 |
| 20260507191055 | 67 | 235 | 7.8 | 9.6 | 0.00 | 0.00 | 0.00 | 72 | 1015.1 |
| 20260507190548 | 67 | 257 | 5.2 | 9.6 | 0.00 | 0.00 | 0.00 | 70 | 1015.1 |
| 20260507190040 | 66 | 203 | 7.0 | 9.6 | 0.00 | 0.00 | 0.00 | 72 | 1015.1 |
| 20260507185533 | 67 | 237 | 6.1 | 9.6 | 0.00 | 0.00 | 0.00 | 72 | 1015.1 |
| 20260507185026 | 67 | 186 | 5.2 | 8.7 | 0.00 | 0.00 | 0.00 | 69 | 1015.1 |
| 20260507184519 | 67 | 217 | 6.1 | 8.7 | 0.00 | 0.00 | 0.00 | 70 | 1015.1 |
| 20260507184011 | 66 | 229 | 5.2 | 8.7 | 0.00 | 0.00 | 0.00 | 73 | 1015.1 |
| 20260507183503 | 67 | 239 | 3.5 | 7.8 | 0.00 | 0.00 | 0.00 | 71 | 1015.1 |
| 20260507182449 | 66 | 252 | 3.5 | 7.0 | 0.00 | 0.00 | 0.00 | 72 | 1015.1 |
| 20260507181942 | 66 | 222 | 2.6 | 7.8 | 0.00 | 0.00 | 0.00 | 71 | 1015.1 |
| 20260507180928 | 66 | 233 | 7.0 | 9.6 | 0.00 | 0.00 | 0.00 | 73 | 1015.1 |
| 20260507175913 | 66 | 266 | 3.5 | 7.8 | 0.00 | 0.00 | 0.00 | 73 | 1015.1 |
| 20260507175405 | 66 | 186 | 5.2 | 7.0 | 0.00 | 0.00 | 0.00 | 73 | 1015.1 |
| 20260507174351 | 65 | 215 | 2.6 | 7.8 | 0.00 | 0.00 | 0.00 | 76 | 1015.1 |
| 20260507172830 | 65 | 334 | 1.7 | 8.7 | 0.00 | 0.00 | 0.00 | 75 | 1015.5 |
| 20260507172322 | 66 | 214 | 5.2 | 8.7 | 0.00 | 0.00 | 0.00 | 73 | 1015.5 |
| 20260507171815 | 65 | 332 | 0.9 | 7.8 | 0.00 | 0.00 | 0.00 | 75 | 1015.1 |
| 20260507171308 | 66 | 261 | 3.5 | 7.0 | 0.00 | 0.00 | 0.00 | 72 | 1015.1 |
| 20260507170800 | 66 | 305 | 2.6 | 7.0 | 0.00 | 0.00 | 0.00 | 72 | 1015.1 |
| 20260507170253 | 66 | 199 | 3.5 | 7.0 | 0.00 | 0.00 | 0.00 | 72 | 1015.5 |
| 20260507165746 | 65 | 202 | 5.2 | 7.0 | 0.00 | 0.00 | 0.00 | 73 | 1015.1 |
| 20260507165239 | 66 | 281 | 3.5 | 6.1 | 0.00 | 0.00 | 0.00 | 73 | 1015.5 |
| 20260507163717 | 65 | 293 | 1.7 | 8.7 | 0.00 | 0.00 | 0.00 | 75 | 1015.5 |
| 20260507162702 | 64 | 211 | 4.3 | 6.1 | 0.00 | 0.00 | 0.00 | 77 | 1015.5 |
| 20260507162155 | 64 | 258 | 1.7 | 5.2 | 0.00 | 0.00 | 0.00 | 77 | 1015.5 |
| 20260507161648 | 64 | 272 | 0.9 | 6.1 | 0.00 | 0.00 | 0.00 | 78 | 1015.5 |
| 20260507161142 | 64 | 226 | 2.6 | 6.1 | 0.00 | 0.00 | 0.00 | 78 | 1015.5 |
| 20260507160634 | 64 | 182 | 1.7 | 5.2 | 0.00 | 0.00 | 0.00 | 77 | 1015.5 |
| 20260507160125 | 64 | 267 | 3.5 | 5.2 | 0.00 | 0.00 | 0.00 | 77 | 1015.5 |
| 20260507155111 | 64 | 245 | 2.6 | 6.1 | 0.00 | 0.00 | 0.00 | 78 | 1015.8 |
| 20260507154604 | 63 | 240 | 3.5 | 5.2 | 0.00 | 0.00 | 0.00 | 79 | 1015.5 |
| 20260507154057 | 63 | 235 | 1.7 | 5.2 | 0.00 | 0.00 | 0.00 | 79 | 1015.5 |
| 20260507153550 | 63 | 231 | 0.9 | 5.2 | 0.00 | 0.00 | 0.00 | 79 | 1015.5 |
| 20260507153042 | 63 | 337 | 1.7 | 5.2 | 0.00 | 0.00 | 0.00 | 79 | 1015.5 |
| 20260507152027 | 62 | 196 | 1.7 | 3.5 | 0.00 | 0.00 | 0.00 | 79 | 1015.5 |
| 20260507151521 | 62 | 148 | 2.6 | 3.5 | 0.00 | 0.00 | 0.00 | 79 | 1015.5 |
| 20260507151014 | 62 | 147 | 0.9 | 2.6 | 0.00 | 0.00 | 0.00 | 80 | 1015.5 |
| 20260507150507 | 62 | 219 | 0.9 | 3.5 | 0.00 | 0.00 | 0.00 | 80 | 1015.5 |
| 20260507145959 | 62 | 244 | 0.0 | 3.5 | 0.00 | 0.00 | 0.00 | 80 | 1015.5 |
| 20260507145452 | 62 | 175 | 1.7 | 2.6 | 0.00 | 0.00 | 0.00 | 79 | 1015.5 |
| 20260507144944 | 62 | 193 | 1.7 | 2.6 | 0.00 | 0.00 | 0.00 | 79 | 1015.5 |
| 20260507144437 | 62 | 239 | 0.9 | 1.7 | 0.00 | 0.00 | 0.00 | 79 | 1015.5 |
| 20260507143930 | 62 | 310 | 0.0 | 0.9 | 0.00 | 0.00 | 0.00 | 81 | 1015.5 |
| 20260507143422 | 61 | 311 | 0.0 | 0.9 | 0.00 | 0.00 | 0.00 | 80 | 1015.5 |
| 20260507142915 | 61 | 315 | 0.0 | 0.9 | 0.00 | 0.00 | 0.00 | 81 | 1015.5 |
| 20260507142408 | 61 | 338 | 0.9 | 0.9 | 0.00 | 0.00 | 0.00 | 81 | 1015.5 |
| 20260507141900 | 60 | 338 | 0.0 | 0.9 | 0.00 | 0.00 | 0.00 | 81 | 1015.1 |
| 20260507141353 | 59 | 338 | 0.0 | 0.9 | 0.00 | 0.00 | 0.00 | 82 | 1015.1 |
| 20260507140339 | 58 | 338 | 0.0 | 0.9 | 0.00 | 0.00 | 0.00 | 83 | 1015.1 |
| 20260507135831 | 58 | 338 | 0.0 | 1.7 | 0.00 | 0.00 | 0.00 | 84 | 1015.1 |
| 20260507134817 | 56 | 332 | 0.9 | 1.7 | 0.00 | 0.00 | 0.00 | 84 | 1015.1 |
| 20260507134310 | 56 | 333 | 0.9 | 0.9 | 0.00 | 0.00 | 0.00 | 85 | 1015.1 |
| 20260507133803 | 56 | 329 | 0.9 | 1.7 | 0.00 | 0.00 | 0.00 | 85 | 1015.1 |
| 20260507132747 | 55 | 330 | 0.0 | 1.7 | 0.00 | 0.00 | 0.00 | 86 | 1015.1 |
| 20260507132240 | 55 | 339 | 0.9 | 1.7 | 0.00 | 0.00 | 0.00 | 87 | 1015.1 |
| 20260507130718 | 55 | 328 | 1.7 | 1.7 | 0.00 | 0.00 | 0.00 | 87 | 1014.8 |
| 20260507125157 | 55 | 328 | 0.9 | 1.7 | 0.00 | 0.00 | 0.00 | 87 | 1014.8 |
| 20260507124650 | 55 | 328 | 1.7 | 1.7 | 0.00 | 0.00 | 0.00 | 87 | 1014.8 |
| 20260507124142 | 55 | 325 | 0.9 | 1.7 | 0.00 | 0.00 | 0.00 | 87 | 1014.8 |
| 20260507123635 | 55 | 323 | 0.9 | 1.7 | 0.00 | 0.00 | 0.00 | 87 | 1014.8 |
| 20260507123128 | 55 | 319 | 0.0 | 1.7 | 0.00 | 0.00 | 0.00 | 87 | 1014.5 |
| 20260507122113 | 54 | 323 | 0.0 | 1.7 | 0.00 | 0.00 | 0.00 | 87 | 1014.8 |
| 20260507121605 | 54 | 331 | 0.9 | 0.9 | 0.00 | 0.00 | 0.00 | 87 | 1014.8 |
| 20260507121058 | 55 | 331 | 0.0 | 0.9 | 0.00 | 0.00 | 0.00 | 87 | 1014.8 |
| 20260507120551 | 55 | 331 | 0.0 | 0.9 | 0.00 | 0.00 | 0.00 | 87 | 1014.8 |
| 20260507120044 | 54 | 331 | 0.0 | 0.0 | 0.00 | 0.00 | 0.00 | 86 | 1014.5 |
| 20260507115537 | 55 | 331 | 0.0 | 0.9 | 0.00 | 0.00 | 0.00 | 86 | 1014.8 |
| 20260507115029 | 55 | 331 | 0.0 | 0.9 | 0.00 | 0.00 | 0.00 | 86 | 1014.8 |
| 20260507114522 | 55 | 337 | 0.9 | 0.9 | 0.00 | 0.00 | 0.00 | 86 | 1014.8 |
| 20260507114015 | 55 | 337 | 0.0 | 0.9 | 0.00 | 0.00 | 0.00 | 86 | 1014.8 |
| 20260507113508 | 55 | 337 | 0.0 | 0.9 | 0.00 | 0.00 | 0.00 | 85 | 1014.8 |
| 20260507113001 | 55 | 337 | 0.0 | 0.9 | 0.00 | 0.00 | 0.00 | 85 | 1014.8 |
| 20260507112453 | 55 | 337 | 0.0 | 1.7 | 0.00 | 0.00 | 0.00 | 86 | 1014.8 |
| 20260507111946 | 55 | 332 | 0.9 | 1.7 | 0.00 | 0.00 | 0.00 | 86 | 1014.8 |
| 20260507110931 | 55 | 325 | 0.9 | 2.6 | 0.00 | 0.00 | 0.00 | 85 | 1015.1 |
| 20260507105916 | 55 | 329 | 0.9 | 1.7 | 0.00 | 0.00 | 0.00 | 85 | 1015.1 |
| 20260507105409 | 56 | 329 | 0.0 | 0.9 | 0.00 | 0.00 | 0.00 | 85 | 1014.8 |
| 20260507104902 | 56 | 329 | 0.0 | 0.9 | 0.00 | 0.00 | 0.00 | 86 | 1015.1 |
| 20260507104355 | 56 | 329 | 0.9 | 0.9 | 0.00 | 0.00 | 0.00 | 86 | 1015.1 |
| 20260507103848 | 56 | 329 | 0.0 | 0.9 | 0.00 | 0.00 | 0.00 | 86 | 1015.1 |
| 20260507103341 | 56 | 335 | 0.0 | 0.9 | 0.00 | 0.00 | 0.00 | 85 | 1015.1 |
| 20260507102833 | 56 | 336 | 0.0 | 0.9 | 0.00 | 0.00 | 0.00 | 86 | 1015.1 |
| 20260507101819 | 56 | 335 | 0.0 | 1.7 | 0.00 | 0.00 | 0.00 | 86 | 1015.1 |
| 20260507101311 | 56 | 4 | 0.0 | 1.7 | 0.00 | 0.00 | 0.00 | 87 | 1015.1 |
| 20260507100804 | 56 | 350 | 0.0 | 1.7 | 0.00 | 0.00 | 0.00 | 87 | 1015.1 |
| 20260507100257 | 56 | 335 | 0.0 | 0.9 | 0.00 | 0.00 | 0.00 | 88 | 1015.1 |
| 20260507095750 | 56 | 335 | 0.0 | 1.7 | 0.00 | 0.00 | 0.00 | 88 | 1015.1 |
| 20260507094735 | 56 | 327 | 0.0 | 0.9 | 0.00 | 0.00 | 0.00 | 88 | 1015.1 |
| 20260507094227 | 56 | 327 | 0.9 | 0.9 | 0.00 | 0.00 | 0.00 | 88 | 1015.5 |
| 20260507093720 | 57 | 327 | 0.0 | 0.9 | 0.00 | 0.00 | 0.00 | 88 | 1015.5 |
| 20260507093213 | 58 | 328 | 0.0 | 1.7 | 0.00 | 0.00 | 0.00 | 89 | 1015.5 |
| 20260507092159 | 58 | 353 | 0.0 | 0.9 | 0.00 | 0.00 | 0.00 | 89 | 1015.5 |
| 20260507091652 | 58 | 347 | 0.0 | 1.7 | 0.00 | 0.00 | 0.00 | 88 | 1015.5 |
| 20260507091145 | 58 | 349 | 0.9 | 1.7 | 0.00 | 0.00 | 0.00 | 88 | 1015.5 |
| 20260507090637 | 58 | 32 | 0.9 | 1.7 | 0.00 | 0.00 | 0.00 | 88 | 1015.5 |
| 20260507090130 | 58 | 0 | 0.9 | 1.7 | 0.00 | 0.00 | 0.00 | 88 | 1015.5 |
| 20260507085623 | 58 | 7 | 0.0 | 1.7 | 0.00 | 0.00 | 0.00 | 88 | 1015.8 |
| 20260507085116 | 58 | 0 | 0.0 | 1.7 | 0.00 | 0.00 | 0.00 | 88 | 1015.8 |
| 20260507084608 | 58 | 2 | 0.9 | 3.5 | 0.00 | 0.00 | 0.00 | 88 | 1015.8 |
| 20260507084100 | 58 | 141 | 1.7 | 3.5 | 0.00 | 0.00 | 0.00 | 88 | 1015.8 |
| 20260507083047 | 58 | 18 | 0.9 | 2.6 | 0.00 | 0.00 | 0.00 | 88 | 1015.8 |
| 20260507082539 | 58 | 8 | 0.9 | 2.6 | 0.00 | 0.00 | 0.00 | 88 | 1015.8 |
| 20260507081524 | 58 | 86 | 2.6 | 2.6 | 0.00 | 0.00 | 0.00 | 88 | 1016.2 |
| 20260507081017 | 58 | 45 | 0.9 | 2.6 | 0.00 | 0.00 | 0.00 | 88 | 1016.2 |
| 20260507080510 | 58 | 351 | 0.0 | 2.6 | 0.00 | 0.00 | 0.00 | 88 | 1015.8 |
| 20260507080004 | 58 | 52 | 0.9 | 2.6 | 0.00 | 0.00 | 0.00 | 89 | 1015.8 |
| 20260507075456 | 58 | 30 | 1.7 | 2.6 | 0.00 | 0.00 | 0.00 | 88 | 1015.8 |
| 20260507074949 | 58 | 40 | 1.7 | 2.6 | 0.00 | 0.00 | 0.00 | 89 | 1016.2 |
| 20260507074441 | 58 | 9 | 0.9 | 2.6 | 0.00 | 0.00 | 0.00 | 88 | 1016.2 |
| 20260507073934 | 58 | 356 | 0.0 | 2.6 | 0.00 | 0.00 | 0.00 | 88 | 1016.2 |
| 20260507073426 | 58 | 14 | 1.7 | 3.5 | 0.00 | 0.00 | 0.00 | 89 | 1016.2 |
| 20260507072919 | 58 | 13 | 2.6 | 3.5 | 0.00 | 0.00 | 0.00 | 89 | 1016.2 |
| 20260507072412 | 58 | 351 | 0.9 | 2.6 | 0.00 | 0.00 | 0.00 | 89 | 1016.2 |
| 20260507071904 | 59 | 356 | 0.9 | 2.6 | 0.00 | 0.00 | 0.00 | 89 | 1016.2 |
| 20260507071357 | 59 | 8 | 1.7 | 1.7 | 0.00 | 0.00 | 0.00 | 89 | 1016.2 |
| 20260507070850 | 58 | 349 | 0.0 | 1.7 | 0.00 | 0.00 | 0.00 | 89 | 1016.2 |
| 20260507065836 | 58 | 357 | 0.0 | 2.6 | 0.00 | 0.00 | 0.00 | 89 | 1016.2 |
| 20260507065329 | 58 | 357 | 0.0 | 2.6 | 0.00 | 0.00 | 0.00 | 89 | 1016.2 |
| 20260507064821 | 58 | 71 | 0.9 | 2.6 | 0.00 | 0.00 | 0.00 | 89 | 1016.2 |
| 20260507064314 | 58 | 79 | 1.7 | 2.6 | 0.00 | 0.00 | 0.00 | 89 | 1016.5 |
| 20260507063806 | 58 | 60 | 0.9 | 2.6 | 0.00 | 0.00 | 0.00 | 89 | 1016.5 |
| 20260507063259 | 58 | 117 | 1.7 | 2.6 | 0.00 | 0.00 | 0.00 | 89 | 1016.2 |
| 20260507062752 | 59 | 129 | 0.9 | 2.6 | 0.00 | 0.00 | 0.00 | 89 | 1016.5 |
| 20260507062244 | 59 | 17 | 0.9 | 3.5 | 0.00 | 0.00 | 0.00 | 89 | 1016.2 |
| 20260507061230 | 59 | 130 | 1.7 | 2.6 | 0.00 | 0.00 | 0.00 | 89 | 1016.2 |
| 20260507060216 | 59 | 75 | 1.7 | 3.5 | 0.00 | 0.00 | 0.00 | 89 | 1016.2 |
| 20260507055708 | 59 | 85 | 1.7 | 3.5 | 0.00 | 0.00 | 0.00 | 89 | 1016.5 |
| 20260507055201 | 59 | 29 | 1.7 | 3.5 | 0.00 | 0.00 | 0.00 | 89 | 1016.5 |
| 20260507054653 | 59 | 127 | 1.7 | 2.6 | 0.00 | 0.00 | 0.00 | 89 | 1016.2 |
| 20260507054146 | 59 | 97 | 1.7 | 2.6 | 0.00 | 0.00 | 0.00 | 89 | 1016.2 |
| 20260507053132 | 59 | 145 | 0.9 | 3.5 | 0.00 | 0.00 | 0.00 | 88 | 1016.2 |
| 20260507052625 | 59 | 155 | 0.9 | 3.5 | 0.00 | 0.00 | 0.00 | 88 | 1016.2 |
| 20260507052118 | 59 | 87 | 1.7 | 3.5 | 0.00 | 0.00 | 0.00 | 88 | 1016.2 |
| 20260507051103 | 59 | 156 | 1.7 | 3.5 | 0.00 | 0.00 | 0.00 | 88 | 1016.2 |
| 20260507050556 | 59 | 45 | 0.9 | 2.6 | 0.00 | 0.00 | 0.00 | 87 | 1016.2 |
| 20260507050049 | 59 | 135 | 1.7 | 2.6 | 0.00 | 0.00 | 0.00 | 87 | 1016.2 |
| 20260507045541 | 59 | 106 | 1.7 | 2.6 | 0.00 | 0.00 | 0.00 | 88 | 1016.2 |
| 20260507045034 | 59 | 100 | 2.6 | 2.6 | 0.00 | 0.00 | 0.00 | 88 | 1016.2 |
| 20260507044527 | 59 | 346 | 0.0 | 0.9 | 0.00 | 0.00 | 0.00 | 88 | 1015.8 |
| 20260507044020 | 59 | 349 | 0.0 | 0.9 | 0.00 | 0.00 | 0.00 | 88 | 1016.2 |
| 20260507043511 | 59 | 25 | 0.9 | 0.9 | 0.00 | 0.00 | 0.00 | 88 | 1016.2 |
| 20260507043004 | 59 | 285 | 0.0 | 1.7 | 0.00 | 0.00 | 0.00 | 88 | 1016.2 |
| 20260507042457 | 59 | 198 | 0.9 | 1.7 | 0.00 | 0.00 | 0.00 | 88 | 1016.2 |
| 20260507041443 | 59 | 246 | 0.0 | 2.6 | 0.00 | 0.00 | 0.00 | 88 | 1016.2 |
| 20260507040935 | 59 | 192 | 0.9 | 2.6 | 0.00 | 0.00 | 0.00 | 88 | 1015.8 |
| 20260507040428 | 59 | 197 | 1.7 | 1.7 | 0.00 | 0.00 | 0.00 | 88 | 1016.2 |
| 20260507035921 | 59 | 234 | 0.9 | 1.7 | 0.00 | 0.00 | 0.00 | 88 | 1015.8 |
| 20260507034359 | 59 | 202 | 1.7 | 1.7 | 0.00 | 0.00 | 0.00 | 88 | 1015.8 |
| 20260507033852 | 59 | 250 | 0.0 | 1.7 | 0.00 | 0.00 | 0.00 | 88 | 1015.8 |
| 20260507032838 | 59 | 251 | 1.7 | 1.7 | 0.00 | 0.00 | 0.00 | 87 | 1015.5 |
| 20260507032330 | 59 | 217 | 0.9 | 1.7 | 0.00 | 0.00 | 0.00 | 87 | 1015.5 |
| 20260507031823 | 59 | 247 | 0.9 | 2.6 | 0.00 | 0.00 | 0.00 | 87 | 1015.5 |
| 20260507030808 | 59 | 242 | 0.9 | 3.5 | 0.00 | 0.00 | 0.00 | 86 | 1015.1 |
| 20260507030301 | 59 | 288 | 0.0 | 3.5 | 0.00 | 0.00 | 0.00 | 86 | 1015.1 |
| 20260507025755 | 59 | 296 | 0.0 | 3.5 | 0.00 | 0.00 | 0.00 | 85 | 1015.1 |
| 20260507025246 | 60 | 238 | 1.7 | 6.1 | 0.00 | 0.00 | 0.00 | 85 | 1015.1 |
| 20260507024739 | 60 | 263 | 1.7 | 6.1 | 0.00 | 0.00 | 0.00 | 84 | 1015.1 |
| 20260507024232 | 60 | 299 | 0.0 | 5.2 | 0.00 | 0.00 | 0.00 | 83 | 1015.1 |
| 20260507023725 | 60 | 265 | 3.5 | 5.2 | 0.00 | 0.00 | 0.00 | 82 | 1015.1 |
| 20260507023217 | 60 | 228 | 1.7 | 5.2 | 0.00 | 0.00 | 0.00 | 82 | 1015.1 |
| 20260507022710 | 61 | 271 | 1.7 | 6.1 | 0.00 | 0.00 | 0.00 | 81 | 1015.1 |
| 20260507022203 | 61 | 252 | 1.7 | 7.8 | 0.00 | 0.00 | 0.00 | 80 | 1015.1 |
| 20260507021148 | 61 | 243 | 5.2 | 7.8 | 0.00 | 0.00 | 0.00 | 79 | 1015.1 |
| 20260507020134 | 62 | 193 | 3.5 | 9.6 | 0.00 | 0.00 | 0.00 | 77 | 1015.1 |
| 20260507015627 | 62 | 250 | 6.1 | 9.6 | 0.00 | 0.00 | 0.00 | 75 | 1015.1 |
| 20260507015120 | 62 | 251 | 5.2 | 11.3 | 0.00 | 0.00 | 0.00 | 75 | 1015.1 |
| 20260507014104 | 63 | 240 | 5.2 | 8.7 | 0.00 | 0.00 | 0.00 | 72 | 1015.1 |
| 20260507013557 | 63 | 260 | 5.2 | 7.8 | 0.00 | 0.00 | 0.00 | 72 | 1015.1 |
| 20260507013050 | 63 | 254 | 5.2 | 7.8 | 0.00 | 0.00 | 0.00 | 73 | 1015.1 |
| 20260507012543 | 63 | 222 | 4.3 | 12.2 | 0.00 | 0.00 | 0.00 | 73 | 1014.8 |
| 20260507012036 | 62 | 235 | 5.2 | 13.9 | 0.00 | 0.00 | 0.00 | 72 | 1015.1 |
| 20260507011528 | 63 | 237 | 9.6 | 12.2 | 0.00 | 0.00 | 0.00 | 72 | 1015.1 |
| 20260507011021 | 63 | 252 | 3.5 | 12.2 | 0.00 | 0.00 | 0.00 | 73 | 1014.8 |
| 20260507010514 | 63 | 250 | 7.0 | 11.3 | 0.00 | 0.00 | 0.00 | 73 | 1014.8 |
| 20260507005459 | 63 | 259 | 5.2 | 13.0 | 0.00 | 0.00 | 0.00 | 73 | 1014.8 |
| 20260507004951 | 63 | 242 | 7.8 | 13.0 | 0.00 | 0.00 | 0.00 | 73 | 1014.8 |
| 20260507004444 | 63 | 264 | 7.0 | 15.6 | 0.00 | 0.00 | 0.00 | 73 | 1014.8 |
| 20260507003937 | 63 | 271 | 8.7 | 15.6 | 0.00 | 0.00 | 0.00 | 73 | 1014.8 |
| 20260507003429 | 64 | 228 | 10.4 | 13.0 | 0.00 | 0.00 | 0.00 | 71 | 1015.1 |
| 20260507002922 | 64 | 202 | 9.6 | 12.2 | 0.00 | 0.00 | 0.00 | 70 | 1014.8 |
| 20260507002415 | 65 | 292 | 6.1 | 11.3 | 0.00 | 0.00 | 0.00 | 71 | 1014.8 |
| 20260507001908 | 65 | 265 | 3.5 | 11.3 | 0.00 | 0.00 | 0.00 | 71 | 1014.8 |
| 20260507001400 | 64 | 215 | 5.2 | 11.3 | 0.00 | 0.00 | 0.00 | 73 | 1014.8 |
| 20260507000854 | 64 | 261 | 4.3 | 13.0 | 0.00 | 0.00 | 0.00 | 73 | 1014.8 |
| 20260507000347 | 64 | 232 | 12.2 | 13.0 | 0.00 | 0.00 | 0.00 | 72 | 1014.8 |
| 20260506235839 | 64 | 216 | 7.8 | 14.8 | 0.00 | 0.00 | 0.00 | 73 | 1014.8 |
| 20260506235332 | 65 | 252 | 8.7 | 14.8 | 0.00 | 0.00 | 0.00 | 72 | 1014.8 |
| 20260506234825 | 65 | 188 | 4.3 | 13.0 | 0.00 | 0.00 | 0.00 | 71 | 1014.8 |
| 20260506234317 | 65 | 254 | 6.1 | 13.9 | 0.00 | 0.00 | 0.00 | 71 | 1014.8 |
| 20260506233810 | 65 | 243 | 7.8 | 13.9 | 0.00 | 0.00 | 0.00 | 69 | 1014.8 |
| 20260506233303 | 66 | 213 | 3.5 | 12.2 | 0.00 | 0.00 | 0.00 | 68 | 1014.8 |
| 20260506232247 | 65 | 217 | 5.2 | 14.8 | 0.00 | 0.00 | 0.00 | 63 | 1014.8 |
| 20260506231234 | 66 | 280 | 7.8 | 13.9 | 0.00 | 0.00 | 0.00 | 63 | 1014.8 |
| 20260506230726 | 65 | 210 | 7.8 | 13.9 | 0.00 | 0.00 | 0.00 | 61 | 1014.8 |
| 20260506230219 | 65 | 228 | 9.6 | 13.9 | 0.00 | 0.00 | 0.00 | 61 | 1015.1 |
| 20260506225712 | 65 | 224 | 7.0 | 13.9 | 0.00 | 0.00 | 0.00 | 66 | 1014.8 |
| 20260506225204 | 65 | 207 | 11.3 | 13.9 | 0.00 | 0.00 | 0.00 | 65 | 1015.1 |
| 20260506224657 | 65 | 248 | 9.6 | 13.9 | 0.00 | 0.00 | 0.00 | 64 | 1015.1 |
| 20260506224149 | 66 | 246 | 11.3 | 13.9 | 0.00 | 0.00 | 0.00 | 62 | 1015.1 |
| 20260506223642 | 65 | 248 | 7.0 | 13.9 | 0.00 | 0.00 | 0.00 | 62 | 1015.1 |
| 20260506223134 | 66 | 243 | 7.0 | 13.9 | 0.00 | 0.00 | 0.00 | 62 | 1015.1 |
| 20260506222627 | 65 | 221 | 9.6 | 13.9 | 0.00 | 0.00 | 0.00 | 61 | 1015.5 |
| 20260506222120 | 65 | 226 | 6.1 | 13.9 | 0.00 | 0.00 | 0.00 | 65 | 1015.5 |
| 20260506221613 | 66 | 229 | 12.2 | 13.9 | 0.00 | 0.00 | 0.00 | 63 | 1015.5 |
| 20260506221105 | 65 | 267 | 5.2 | 13.9 | 0.00 | 0.00 | 0.00 | 64 | 1015.5 |
| 20260506220558 | 66 | 226 | 9.6 | 13.9 | 0.00 | 0.00 | 0.00 | 61 | 1015.5 |
| 20260506215544 | 65 | 236 | 8.7 | 14.8 | 0.00 | 0.00 | 0.00 | 59 | 1015.8 |
| 20260506215037 | 65 | 238 | 6.1 | 14.8 | 0.00 | 0.00 | 0.00 | 62 | 1015.8 |
| 20260506214528 | 65 | 34 | 2.6 | 13.0 | 0.00 | 0.00 | 0.00 | 63 | 1015.8 |
| 20260506214021 | 67 | 249 | 9.6 | 13.0 | 0.00 | 0.00 | 0.00 | 63 | 1015.8 |